Regional Weather Roundup
Issued by NWS

Home | Current Version | Previous Version | Graphics & Text | Print | Product List | Glossary On
Versions: 1 2 3 4 5 6 7 8 9 10 11 12 13 14 15 16 17 18 19 20 21 22 23 24 25 26 27 28 29 30 31 32 33 34 35 36 37 38 39 40 41 42 43 44 45 46 47 48 49 50
118
ASUS43 KOAX 041802
RWRNE

WEATHER ROUNDUP FOR NEBRASKA
NATIONAL WEATHER SERVICE OMAHA NE
100 PM CDT WED MAY 04 2016

NOTES: SATELLITE DATA IS BEING USED TO AUGMENT CLOUD COVER ABOVE
       12000 FEET.
       "FAIR" INDICATES FEW OR NO CLOUDS BELOW 12,000 FEET WITH NO
       SIGNIFICANT WEATHER AND/OR OBSTRUCTIONS TO VISIBILITY.

  * THESE STATIONS DO NOT REPORT WEATHER SUCH AS RAIN...SNOW OR FOG.

NEZ001>004-019>022-054>056-041900-
NEBRASKA PANHANDLE

CITY           SKY/WX    TMP DP  RH WIND       PRES   REMARKS
SCOTTSBLUFF    SUNNY     71  38  29 S6        30.18F
6HR MIN TEMP:  41; 6HR MAX TEMP:  71;

ALLIANCE       SUNNY     69  38  32 VRB5      30.18F
6HR MIN TEMP:  34; 6HR MAX TEMP:  70;

CHADRON        SUNNY     72  39  30 VRB3      30.15F
6HR MIN TEMP:  39; 6HR MAX TEMP:  73;

KIMBALL        MOSUNNY   68  38  32 SW3       30.23S
SIDNEY         SUNNY     71  39  31 NE8       30.20F
6HR MIN TEMP:  37; 6HR MAX TEMP:  72;

$$

NEZ057>060-069>072-079>082-041900-
SOUTHWEST NEBRASKA

CITY           SKY/WX    TMP DP  RH WIND       PRES   REMARKS
NORTH PLATTE   SUNNY     73  40  30 N12G18    30.14F
6HR MIN TEMP:  38; 6HR MAX TEMP:  73;

IMPERIAL       SUNNY     72  39  30 N7        30.17F
6HR MIN TEMP:  45; 6HR MAX TEMP:  73;

MCCOOK         SUNNY     72  44  36 NW8       30.15F
6HR MIN TEMP:  41; 6HR MAX TEMP:  72;

$$

NEZ005>010-023>029-035>040-094-041900-
NORTH CENTRAL NEBRASKA

CITY           SKY/WX    TMP DP  RH WIND       PRES   REMARKS
VALENTINE      SUNNY     70  32  24 N5        30.13F
6HR MIN TEMP:  37; 6HR MAX TEMP:  70;

AINSWORTH      SUNNY     66  31  27 N12       30.15S
BROKEN BOW     SUNNY     68  40  35 N14       30.13F
6HR MIN TEMP:  44; 6HR MAX TEMP:  68;

ORD            SUNNY     66  33  29 N15G23    30.11F
6HR MIN TEMP:  42; 6HR MAX TEMP:  66;

$$

NEZ041-046>049-061>064-073>077-083>087-041900-
SOUTH CENTRAL NEBRASKA

CITY           SKY/WX    TMP DP  RH WIND       PRES   REMARKS
GRAND ISLAND   SUNNY     65  32  29 N15G22    30.12F
6HR MIN TEMP:  46; 6HR MAX TEMP:  66;

AURORA         SUNNY     65  33  30 N14G22    30.11F
HASTINGS       SUNNY     65  36  34 N13G22    30.12S
6HR MIN TEMP:  46; 6HR MAX TEMP:  65;

KEARNEY *      SUNNY     66  36  32 N14       30.13F
YORK           SUNNY     64  37  36 N12G22    30.11S
$$

NEZ011>018-030>034-042>045-041900-
NORTHEAST NEBRASKA

CITY           SKY/WX    TMP DP  RH WIND       PRES   REMARKS
NORFOLK        SUNNY     64  35  34 N16       30.09F
6HR MIN TEMP:  43; 6HR MAX TEMP:  64;

ALBION         SUNNY     63  36  36 NW9G20    30.11F
BLAIR          SUNNY     63  39  40 NW18G24   30.06F
COLUMBUS *     SUNNY     64  36  34 N10G17    30.11S
FREMONT        SUNNY     64  37  37 N12       30.08S
TEKAMAH        SUNNY     64  40  41 N18G25    30.06F
6HR MIN TEMP:  45; 6HR MAX TEMP:  64;

$$

NEZ050>053-065>068-078-088>093-041900-
SOUTHEAST NEBRASKA

CITY           SKY/WX    TMP DP  RH WIND       PRES   REMARKS
LINCOLN        SUNNY     68  36  30 N16G22    30.09S
6HR MIN TEMP:  50; 6HR MAX TEMP:  68;

OMAHA EPPLEY   MOSUNNY   65  39  38 N21       30.05S
6HR MIN TEMP:  48; 6HR MAX TEMP:  65;

BEATRICE       SUNNY     65  37  36 N13G25    30.08S
FALLS CITY     SUNNY     66  38  35 N17G25    30.03S
6HR MIN TEMP:  50; 6HR MAX TEMP:  67;

$$

NEZ044-045-051>053-067-041900-
OMAHA AREA

CITY           SKY/WX    TMP DP  RH WIND       PRES   REMARKS
OMAHA EPPLEY   MOSUNNY   65  39  38 N21       30.05S
6HR MIN TEMP:  48; 6HR MAX TEMP:  65;

BLAIR          SUNNY     63  39  40 NW18G24   30.06F
FREMONT        SUNNY     64  37  37 N12       30.08S
OFFUTT AFB     MOSUNNY   64  40  41 NW17G23   30.05S
$$




USA.gov is the U.S. government's official web portal to all federal, state and local government web resources and services.